Location: Chèvreville
(49.1099°N, 2.8495°E)
Time: 14:03:22
(UTC+00:00)

BlueWalker 3 - Pass Details

Date: 23 January 2026
Orbit: 450 x 461 km, 53.2° (Epoch: 11 February)

Event Time Altitude Azimuth Distance (km) Brightness Sun altitude
Rises 19:22:42 0° 255° (WSW) 2,452 6.6 -27.8°
Reaches altitude 10° 19:24:50 10° 259° (WSW) 1,581 5.4 -28.2°
Enters shadow 19:26:21 23° 265° (W) 996 4.1 -28.4°
